Previsão horária em Ploki

Hoje, 1 Março, Segunda-feira

Tempo Temperatura Precipitação Vento Pressão Humidade
00:00 +1°C° 0 mm 3 m/s 734 mmHg 87%
01:00 0°C° 0 mm 3 m/s 734 mmHg 88%
02:00 +1°C° 0 mm 2 m/s 734 mmHg 89%
03:00 +1°C° 0 mm 2 m/s 734 mmHg 89%
04:00 +1°C° 0 mm 2 m/s 735 mmHg 90%
05:00 +1°C° 0 mm 2 m/s 735 mmHg 90%
06:00 +1°C° 0 mm 2 m/s 735 mmHg 91%
07:00 +1°C° 0 mm 2 m/s 735 mmHg 91%
08:00 +2°C° 0 mm 1 m/s 735 mmHg 89%
09:00 +3°C° 0 mm 1 m/s 736 mmHg 87%
10:00 +3°C° 0 mm 1 m/s 736 mmHg 85%
11:00 +4°C° 0 mm 1 m/s 736 mmHg 82%
12:00 +4°C° 0 mm 1 m/s 736 mmHg 78%
13:00 +5°C° 0 mm 1 m/s 737 mmHg 74%
14:00 +5°C° 0 mm 1 m/s 736 mmHg 73%
15:00 +5°C° 0 mm 1 m/s 736 mmHg 71%
16:00 +5°C° 0 mm 0 m/s 736 mmHg 69%
17:00 +4°C° 0 mm 0 m/s 736 mmHg 74%
18:00 +3°C° 0 mm 0 m/s 736 mmHg 79%
19:00 +2°C° 0 mm 0 m/s 736 mmHg 84%
20:00 +1°C° 0 mm 0 m/s 736 mmHg 84%
21:00 +1°C° 0 mm 0 m/s 736 mmHg 85%
22:00 +2°C° 0 mm 1 m/s 736 mmHg 86%
23:00 +2°C° 0 mm 1 m/s 736 mmHg 86%

Amanhã, 2 Março, Terça-feira

Tempo Temperatura Precipitação Vento Pressão Humidade
00:00 +1°C° 0 mm 1 m/s 736 mmHg 86%
01:00 +1°C° 0 mm 1 m/s 736 mmHg 86%
02:00 +1°C° 0 mm 1 m/s 736 mmHg 86%
03:00 +1°C° 0 mm 1 m/s 736 mmHg 85%
04:00 +1°C° 0 mm 1 m/s 735 mmHg 85%
05:00 -1°C° 0 mm 2 m/s 735 mmHg 84%
06:00 -1°C° 0 mm 2 m/s 735 mmHg 82%
07:00 -1°C° 0 mm 2 m/s 736 mmHg 81%
08:00 +2°C° 0 mm 2 m/s 735 mmHg 74%
09:00 +3°C° 0 mm 3 m/s 735 mmHg 66%
10:00 +5°C° 0 mm 3 m/s 735 mmHg 59%
11:00 +7°C° 0 mm 3 m/s 735 mmHg 56%
12:00 +8°C° 0 mm 3 m/s 735 mmHg 53%
13:00 +9°C° 0 mm 3 m/s 735 mmHg 51%
14:00 +9°C° 0 mm 3 m/s 735 mmHg 52%
15:00 +9°C° 0 mm 3 m/s 735 mmHg 53%
16:00 +9°C° 0 mm 3 m/s 734 mmHg 54%
17:00 +7°C° 0 mm 3 m/s 734 mmHg 59%
18:00 +6°C° 0 mm 2 m/s 734 mmHg 64%
19:00 +5°C° 0 mm 2 m/s 734 mmHg 68%
20:00 +4°C° 0 mm 2 m/s 735 mmHg 71%
21:00 +5°C° 0 mm 1 m/s 735 mmHg 73%
22:00 +4°C° 0 mm 1 m/s 735 mmHg 75%
23:00 +4°C° 0 mm 1 m/s 735 mmHg 77%

Depois de amanhã, 3 Março, Quarta-feira

Tempo Temperatura Precipitação Vento Pressão Humidade
00:00 +3°C° 0 mm 1 m/s 735 mmHg 79%
01:00 +2°C° 0 mm 0 m/s 734 mmHg 80%
02:00 +2°C° 0 mm 0 m/s 734 mmHg 81%
03:00 +2°C° 0 mm 0 m/s 734 mmHg 81%
04:00 +1°C° 0 mm 0 m/s 733 mmHg 82%
05:00 +1°C° 0 mm 0 m/s 733 mmHg 81%
06:00 +1°C° 0 mm 0 m/s 733 mmHg 81%
07:00 +1°C° 0 mm 0 m/s 733 mmHg 81%
08:00 +3°C° 0 mm 0 m/s 733 mmHg 74%
09:00 +5°C° 0 mm 0 m/s 733 mmHg 67%
10:00 +7°C° 0 mm 0 m/s 733 mmHg 61%
11:00 +8°C° 0 mm 0 m/s 733 mmHg 57%
12:00 +10°C° 0 mm 1 m/s 732 mmHg 53%
13:00 +11°C° 0 mm 1 m/s 732 mmHg 49%
14:00 +11°C° 0 mm 1 m/s 731 mmHg 50%
15:00 +11°C° 0 mm 1 m/s 731 mmHg 51%
16:00 +11°C° 0 mm 1 m/s 730 mmHg 52%
17:00 +10°C° 0 mm 1 m/s 730 mmHg 56%
18:00 +8°C° 0 mm 1 m/s 730 mmHg 60%
19:00 +6°C° 0 mm 2 m/s 729 mmHg 64%
20:00 +5°C° 0 mm 2 m/s 729 mmHg 67%
21:00 +5°C° 0 mm 2 m/s 729 mmHg 70%
22:00 +3°C° 0 mm 3 m/s 728 mmHg 73%
23:00 +3°C° 0 mm 3 m/s 728 mmHg 74%

4 Março, Quinta-feira

Tempo Temperatura Precipitação Vento Pressão Humidade
00:00 +2°C° 0 mm 3 m/s 727 mmHg 75%
01:00 +2°C° 0 mm 3 m/s 727 mmHg 76%
02:00 +2°C° 0 mm 3 m/s 726 mmHg 78%
03:00 +1°C° 0 mm 3 m/s 726 mmHg 80%
04:00 +1°C° 0 mm 3 m/s 725 mmHg 81%
05:00 +1°C° 0 mm 3 m/s 725 mmHg 82%
06:00 +1°C° 0 mm 3 m/s 725 mmHg 82%
07:00 +1°C° 0 mm 3 m/s 724 mmHg 82%
08:00 +3°C° 0 mm 4 m/s 724 mmHg 75%
09:00 +5°C° 0 mm 4 m/s 724 mmHg 69%
10:00 +6°C° 0 mm 4 m/s 723 mmHg 62%
11:00 +7°C° 0 mm 4 m/s 723 mmHg 59%
12:00 +8°C° 0 mm 5 m/s 723 mmHg 56%
13:00 +10°C° 0 mm 5 m/s 722 mmHg 53%
14:00 +9°C° 0 mm 5 m/s 722 mmHg 55%
15:00 +10°C° 0 mm 4 m/s 721 mmHg 57%
16:00 +10°C° 0 mm 4 m/s 721 mmHg 59%
17:00 +9°C° 0 mm 3 m/s 721 mmHg 64%
18:00 +8°C° 0 mm 3 m/s 720 mmHg 69%
19:00 +7°C° 0 mm 2 m/s 720 mmHg 74%
20:00 +7°C° 0 mm 2 m/s 720 mmHg 75%
21:00 +6°C° 0 mm 2 m/s 719 mmHg 76%
22:00 +6°C° 0 mm 2 m/s 719 mmHg 77%
23:00 +6°C° 0.1 mm 2 m/s 719 mmHg 77%

5 Março, Sexta-feira

Tempo Temperatura Precipitação Vento Pressão Humidade
00:00 +5°C° 0.1 mm 3 m/s 718 mmHg 77%
01:00 +5°C° 0.1 mm 3 m/s 718 mmHg 77%
02:00 +5°C° 0.1 mm 3 m/s 717 mmHg 80%
03:00 +4°C° 0.1 mm 3 m/s 717 mmHg 84%
04:00 +4°C° 0.1 mm 3 m/s 717 mmHg 87%
05:00 +5°C° 0.7 mm 2 m/s 717 mmHg 90%
06:00 +5°C° 0.7 mm 2 m/s 717 mmHg 92%
07:00 +4°C° 0.7 mm 2 m/s 717 mmHg 94%
08:00 +3°C° 1.4 mm 3 m/s 717 mmHg 94%
09:00 +1°C° 1.4 mm 4 m/s 718 mmHg 94%
10:00 0°C° 1.4 mm 4 m/s 718 mmHg 94%
11:00 0°C° 0.2 mm 4 m/s 719 mmHg 93%
12:00 0°C° 0.2 mm 4 m/s 719 mmHg 92%
13:00 +1°C° 0.2 mm 3 m/s 720 mmHg 91%
14:00 -1°C° 0.2 mm 4 m/s 721 mmHg 89%
15:00 -2°C° 0.2 mm 4 m/s 721 mmHg 88%
16:00 -2°C° 0.2 mm 5 m/s 722 mmHg 87%
17:00 -3°C° 0.2 mm 4 m/s 722 mmHg 84%
18:00 -3°C° 0.2 mm 4 m/s 723 mmHg 80%
19:00 -4°C° 0.2 mm 3 m/s 723 mmHg 77%
20:00 -4°C° 0 mm 3 m/s 724 mmHg 75%
21:00 -3°C° 0 mm 2 m/s 725 mmHg 73%
22:00 -1°C° 0 mm 1 m/s 726 mmHg 71%
23:00 -3°C° 0 mm 2 m/s 726 mmHg 71%

6 Março, Sábado

Tempo Temperatura Precipitação Vento Pressão Humidade
00:00 -3°C° 0 mm 2 m/s 726 mmHg 71%
01:00 -4°C° 0 mm 2 m/s 727 mmHg 71%
02:00 -4°C° 0 mm 2 m/s 727 mmHg 73%
03:00 -4°C° 0 mm 2 m/s 727 mmHg 76%
04:00 -5°C° 0 mm 3 m/s 728 mmHg 79%
05:00 -5°C° 0 mm 3 m/s 728 mmHg 71%
06:00 -5°C° 0 mm 3 m/s 729 mmHg 64%
07:00 -5°C° 0 mm 3 m/s 730 mmHg 56%
08:00 -5°C° 0 mm 4 m/s 730 mmHg 54%
09:00 -4°C° 0 mm 4 m/s 731 mmHg 52%
10:00 -3°C° 0 mm 4 m/s 731 mmHg 50%
11:00 -3°C° 0.1 mm 4 m/s 732 mmHg 47%
12:00 -2°C° 0.1 mm 4 m/s 732 mmHg 45%
13:00 -2°C° 0.1 mm 4 m/s 732 mmHg 43%
14:00 -2°C° 0 mm 4 m/s 732 mmHg 42%
15:00 -2°C° 0 mm 4 m/s 733 mmHg 42%
16:00 -2°C° 0 mm 4 m/s 733 mmHg 41%
17:00 -2°C° 0 mm 3 m/s 733 mmHg 45%
18:00 -3°C° 0 mm 2 m/s 734 mmHg 49%
19:00 -4°C° 0 mm 2 m/s 734 mmHg 54%
20:00 -2°C° 0 mm 1 m/s 734 mmHg 54%
21:00 -2°C° 0 mm 1 m/s 734 mmHg 55%
22:00 -2°C° 0 mm 1 m/s 735 mmHg 55%
23:00 -2°C° 0 mm 1 m/s 735 mmHg 55%
Mostrar mais

Necessitamos do seu Consentimento

A Meteoprog e os seus Fornecedores de Serviços podem armazenar e aceder a dados pessoais como cookies, identificadores do dispositivo ou outras tecnologias semelhantes existentes no seu dispositivo e processar estes dados para personalizar conteúdos e anúncios, assim como funcionalidades nas redes sociais e análise de tráfego.

  • Armazenar e/ou aceder a informações no seu dispositivo

    Os cookies, identificadores do dispositivo ou outras informações podem ser armazenados ou acedidos no seu dispositivo, para os fins acima indicados.

  • Anúncios e conteúdos personalizados, medição de anúncios e conteúdos, dados sobre o público-alvo e desenvolvimento de produtos

    Os anúncios e os conteúdos podem ser personalizados com base num perfil. Podem ser adicionados dados adicionais para uma maior personalização dos anúncios e dos conteúdos. A eficácia dos anúncios e dos conteúdos pode ser medida. Podem ser obtidas informações sobre o público que visualizou os anúncios e os conteúdos. Estes dados podem ser usados para desenvolver ou melhorar sistemas, softwares ou a experiência do utilizador.

Ao clicar em "Eu concordo”, permitirá o uso de cookies, identificadores do dispositivo e web beacons mencionados ou outras tecnologias semelhantes. As configurações do navegador do seu dispositivo podem ser alteradas.

Para certos fins, podem ser invocados interesses legítimos ao invés de consentimento. Pode ler mais informação sobre este assunto na nossa Política de Privacidade e Cookies.